GW4616 Weather Reports


time (UTC)temp
C
wind
direction
speed
KPH
gust
KPH
rain 1hr
cm
rain 24hr
cm
rain mn
cm
humidity
%
barometer
mb
20260504185830 24 238 9.7 24.1 0.00 0.00 0.00 35 1008.7
20260504185327 24 156 22.5 29.0 0.00 0.00 0.00 34 1008.7
20260504184823 24 226 14.5 33.8 0.00 0.00 0.00 34 1008.8
20260504184319 23 220 14.5 25.7 0.00 0.00 0.00 33 1008.9
20260504183815 24 208 9.7 20.9 0.00 0.00 0.00 35 1008.9
20260504183312 24 235 4.8 16.1 0.00 0.00 0.00 36 1008.8
20260504182810 22 243 14.5 17.7 0.00 0.00 0.00 35 1009.0
20260504182307 23 256 17.7 22.5 0.00 0.00 0.00 34 1009.0
20260504181804 23 260 14.5 24.1 0.00 0.00 0.00 34 1009.0
20260504181301 23 242 6.4 11.3 0.00 0.00 0.00 34 1009.0
20260504180801 23 228 12.9 17.7 0.00 0.00 0.00 33 1008.8
20260504180259 23 238 12.9 24.1 0.00 0.00 0.00 32 1009.0
20260504175756 23 217 17.7 22.5 0.00 0.00 0.00 33 1009.1
20260504175253 22 205 6.4 12.9 0.00 0.00 0.00 34 1009.0
20260504174751 23 284 9.7 12.9 0.00 0.00 0.00 34 1009.0
20260504174248 23 280 14.5 20.9 0.00 0.00 0.00 33 1009.0
20260504173745 23 231 12.9 16.1 0.00 0.00 0.00 34 1009.4
20260504173242 23 189 8.0 17.7 0.00 0.00 0.00 36 1009.4
20260504172738 23 273 8.0 17.7 0.00 0.00 0.00 34 1009.4
20260504172235 22 217 4.8 12.9 0.00 0.00 0.00 36 1009.5
20260504171731 22 178 16.1 25.7 0.00 0.00 0.00 33 1009.5
20260504171228 23 147 11.3 20.9 0.00 0.00 0.00 35 1009.7
20260504170725 21 221 9.7 17.7 0.00 0.00 0.00 35 1009.6
20260504170223 22 232 16.1 27.4 0.00 0.00 0.00 35 1009.9
20260504160141 21 216 3.2 14.5 0.00 0.00 0.00 34 1010.8
20260504151108 19 198 17.7 24.1 0.00 0.00 0.00 36 1011.0
20260504150606 19 179 6.4 16.1 0.00 0.00 0.00 39 1011.0
20260504141032 17 179 6.4 14.5 0.00 0.00 0.00 45 1011.3
20260504140528 17 145 9.7 11.3 0.00 0.00 0.00 44 1011.4
20260504130452 13 131 8.0 11.3 0.00 0.00 0.00 51 1011.9
20260504110339 6 145 0.0 0.0 0.00 0.00 0.00 82 1012.4
20260504100257 6 45 0.0 0.0 0.00 0.00 0.00 80 1012.4
20260504081650 6 73 0.0 0.0 0.00 0.00 0.00 78 1012.8
20260504081146 6 73 0.0 0.0 0.00 0.00 0.00 79 1012.6
20260504080643 6 73 0.0 0.0 0.00 0.00 0.00 79 1012.7
20260504080139 6 72 0.0 0.0 0.00 0.00 0.00 79 1012.9
20260504070108 6 99 0.0 0.0 0.00 0.00 0.00 77 1013.0
20260504050456 6 114 0.0 0.0 0.00 0.00 0.00 72 1013.5
20260504045953 6 115 0.0 0.0 0.00 0.00 0.00 73 1013.4
20260504045449 6 115 0.0 0.0 0.00 0.00 0.00 72 1013.5
20260504044945 6 114 0.0 0.0 0.00 0.00 0.00 69 1013.5
20260504044443 6 114 0.0 0.0 0.00 0.00 0.00 71 1013.6
20260504043940 6 122 1.6 1.6 0.00 0.00 0.00 71 1013.5
20260504043437 6 128 0.0 0.0 0.00 0.00 0.00 73 1013.6
20260504042934 6 124 1.6 1.6 0.00 0.00 0.00 73 1013.5
20260504042431 6 95 0.0 0.0 0.00 0.00 0.00 70 1013.5
20260504041927 6 95 0.0 0.0 0.00 0.00 0.00 70 1013.6
20260504041424 6 117 0.0 0.0 0.00 0.00 0.00 69 1013.6
20260504040920 6 101 0.0 0.0 0.00 0.00 0.00 72 1013.8
20260504040418 6 102 0.0 0.0 0.00 0.00 0.00 69 1013.6
20260504035913 6 98 1.6 1.6 0.00 0.00 0.00 65 1013.6
20260504035411 6 97 0.0 1.6 0.00 0.00 0.00 67 1014.0
20260504034907 5 97 1.6 1.6 0.00 0.00 0.00 68 1013.9
20260504034405 5 110 0.0 3.2 0.00 0.00 0.00 71 1013.8
20260504033902 6 6 0.0 1.6 0.00 0.00 0.00 69 1013.8
20260504033400 6 120 0.0 1.6 0.00 0.00 0.00 64 1013.9
20260504032856 5 129 0.0 1.6 0.00 0.00 0.00 66 1013.6
20260504032353 5 131 3.2 3.2 0.00 0.00 0.00 74 1013.6
20260504031850 5 108 0.0 0.0 0.00 0.00 0.00 69 1013.6
20260504031347 6 108 0.0 0.0 0.00 0.00 0.00 69 1013.9
20260504030843 6 119 0.0 1.6 0.00 0.00 0.00 64 1013.8
20260504030341 6 133 0.0 0.0 0.00 0.00 0.00 67 1013.9
20260504025837 6 91 0.0 1.6 0.00 0.00 0.00 65 1013.9
20260504025334 6 126 0.0 0.0 0.00 0.00 0.00 63 1013.5
20260504024830 6 167 0.0 0.0 0.00 0.00 0.00 67 1014.0
20260504024327 6 201 0.0 1.6 0.00 0.00 0.00 66 1013.9
20260504023824 6 204 0.0 0.0 0.00 0.00 0.00 65 1013.6
20260504023320 6 133 0.0 0.0 0.00 0.00 0.00 62 1013.8
20260504022816 6 99 0.0 0.0 0.00 0.00 0.00 64 1013.6
20260504022313 7 100 1.6 1.6 0.00 0.00 0.00 62 1013.8
20260504021809 7 163 0.0 0.0 0.00 0.00 0.00 60 1013.8
20260504021308 7 138 0.0 1.6 0.00 0.00 0.00 58 1014.0
20260504020804 7 138 0.0 0.0 0.00 0.00 0.00 56 1013.8
20260504020301 7 166 0.0 1.6 0.00 0.00 0.00 56 1013.8
20260504015757 8 160 0.0 1.6 0.00 0.00 0.00 55 1013.6
20260504015253 8 187 0.0 1.6 0.00 0.00 0.00 53 1013.5
20260504014749 8 128 0.0 0.0 0.00 0.00 0.00 53 1013.6
20260504014246 8 128 0.0 3.2 0.00 0.00 0.00 53 1013.4
20260504013744 8 103 1.6 3.2 0.00 0.00 0.00 53 1013.6
20260504013241 8 107 1.6 3.2 0.00 0.00 0.00 51 1013.5
20260504012737 8 108 3.2 3.2 0.00 0.00 0.00 51 1013.2
20260504012235 8 83 3.2 4.8 0.00 0.00 0.00 53 1013.2
20260504011732 8 94 1.6 1.6 0.00 0.00 0.00 52 1013.2
20260504011229 8 104 1.6 3.2 0.00 0.00 0.00 50 1013.2
20260504010725 8 89 1.6 1.6 0.00 0.00 0.00 51 1013.2
20260504010220 8 137 3.2 3.2 0.00 0.00 0.00 50 1013.2
20260504005717 9 111 1.6 3.2 0.00 0.00 0.00 48 1013.2
20260504005214 10 100 1.6 1.6 0.00 0.00 0.00 47 1013.2
20260504004712 10 102 1.6 1.6 0.00 0.00 0.00 45 1012.9
20260504004209 10 110 1.6 1.6 0.00 0.00 0.00 43 1013.1
20260504003706 11 100 0.0 1.6 0.00 0.00 0.00 41 1013.1
20260504003202 11 107 1.6 1.6 0.00 0.00 0.00 41 1013.2
20260504002659 11 126 1.6 1.6 0.00 0.00 0.00 40 1013.0
20260504002156 12 181 0.0 0.0 0.00 0.00 0.00 38 1013.0
20260504001654 12 181 0.0 1.6 0.00 0.00 0.00 40 1013.1
20260504001150 12 210 0.0 0.0 0.00 0.00 0.00 37 1013.0
20260504000647 12 211 1.6 1.6 0.00 0.00 0.00 37 1013.0
20260504000145 12 256 0.0 0.0 0.00 0.00 0.00 36 1013.0
20260503235643 13 290 0.0 0.0 0.00 0.00 0.00 36 1013.1
20260503235139 13 280 0.0 3.2 0.00 0.00 0.00 34 1013.0
20260503234637 13 272 1.6 4.8 0.00 0.00 0.00 34 1013.1
20260503234135 14 274 3.2 4.8 0.00 0.00 0.00 33 1013.0
20260503233632 15 290 0.0 1.6 0.00 0.00 0.00 31 1013.0
20260503233127 15 273 1.6 4.8 0.00 0.00 0.00 30 1013.1
20260503232625 16 312 1.6 6.4 0.00 0.00 0.00 30 1013.2
20260503232122 16 274 3.2 6.4 0.00 0.00 0.00 28 1012.9
20260503231620 16 320 3.2 4.8 0.00 0.00 0.00 29 1013.0
20260503231116 16 309 3.2 9.7 0.00 0.00 0.00 28 1013.1
20260503230613 16 301 1.6 4.8 0.00 0.00 0.00 29 1013.1
20260503230110 16 286 1.6 3.2 0.00 0.00 0.00 30 1013.0
20260503225608 17 275 1.6 4.8 0.00 0.00 0.00 28 1013.0
20260503225102 16 30 6.4 9.7 0.00 0.00 0.00 27 1013.0
20260503224600 16 349 3.2 9.7 0.00 0.00 0.00 28 1013.0
20260503224058 16 341 6.4 9.7 0.00 0.00 0.00 27 1012.9
20260503223556 17 321 3.2 11.3 0.00 0.00 0.00 29 1012.9
20260503223051 17 279 4.8 11.3 0.00 0.00 0.00 27 1012.9
20260503222549 17 318 3.2 6.4 0.00 0.00 0.00 30 1013.1
20260503222047 16 275 4.8 11.3 0.00 0.00 0.00 27 1012.7
20260503221545 17 295 4.8 11.3 0.00 0.00 0.00 28 1012.9
20260503221042 17 282 9.7 14.5 0.00 0.00 0.00 27 1012.8
20260503220538 17 251 6.4 12.9 0.00 0.00 0.00 27 1012.9
20260503220035 17 288 4.8 11.3 0.00 0.00 0.00 29 1013.0
20260503215532 17 247 6.4 9.7 0.00 0.00 0.00 27 1013.1
20260503215029 17 280 6.4 11.3 0.00 0.00 0.00 27 1013.1
20260503214527 17 248 3.2 9.7 0.00 0.00 0.00 30 1013.1
20260503214024 16 249 4.8 16.1 0.00 0.00 0.00 28 1013.4
20260503213522 17 34 1.6 17.7 0.00 0.00 0.00 29 1013.3
20260503213018 16 258 8.0 14.5 0.00 0.00 0.00 30 1013.0
20260503212516 16 174 8.0 14.5 0.00 0.00 0.00 30 1013.3
20260503212013 16 314 6.4 12.9 0.00 0.00 0.00 28 1013.0
20260503211510 16 247 17.7 22.5 0.00 0.00 0.00 28 1013.0
20260503211011 17 277 8.0 16.1 0.00 0.00 0.00 28 1013.0
20260503210508 16 245 12.9 17.7 0.00 0.00 0.00 27 1012.9
20260503210003 16 241 16.1 24.1 0.00 0.00 0.00 28 1013.3
20260503205500 16 236 4.8 14.5 0.00 0.00 0.00 30 1013.2
20260503204956 16 260 9.7 20.9 0.00 0.00 0.00 31 1013.1
20260503204453 17 276 6.4 9.7 0.00 0.00 0.00 28 1013.3
20260503203950 17 277 3.2 20.9 0.00 0.00 0.00 30 1013.4
20260503203448 17 250 1.6 4.8 0.00 0.00 0.00 31 1013.5
20260503202944 17 250 3.2 6.4 0.00 0.00 0.00 33 1013.4
20260503202443 17 289 4.8 6.4 0.00 0.00 0.00 33 1013.5
20260503201941 16 275 4.8 12.9 0.00 0.00 0.00 31 1013.6
20260503201438 16 258 9.7 16.1 0.00 0.00 0.00 30 1013.5
20260503200935 16 275 1.6 6.4 0.00 0.00 0.00 36 1013.4
20260503200431 16 36 3.2 4.8 0.00 0.00 0.00 33 1013.8
20260503195928 16 269 3.2 6.4 0.00 0.00 0.00 29 1013.9
20260503195426 16 241 3.2 14.5 0.00 0.00 0.00 29 1014.1
20260503194922 16 296 8.0 17.7 0.00 0.00 0.00 27 1014.0
20260503194419 16 12 6.4 16.1 0.00 0.00 0.00 30 1014.1
20260503193914 16 324 4.8 11.3 0.00 0.00 0.00 31 1013.9
20260503193410 16 251 4.8 9.7 0.00 0.00 0.00 30 1014.2
20260503192906 16 290 8.0 11.3 0.00 0.00 0.00 28 1014.1
20260503192401 16 312 4.8 9.7 0.00 0.00 0.00 31 1014.3
20260503191858 16 26 4.8 9.7 0.00 0.00 0.00 32 1014.4
20260503191355 16 310 6.4 12.9 0.00 0.00 0.00 33 1014.4
20260503190852 15 288 4.8 11.3 0.00 0.00 0.00 35 1014.4
20260503190349 16 299 11.3 16.1 0.00 0.00 0.00 30 1014.4